Location: Kavul?ru
(16.6288°N, 80.5832°E)
Time: 10:02:06
(UTC+00:00)

CZ-3 R/B - Pass Details

Date: 15 May 2026
Orbit: 564 x 9992 km, 28.2° (Epoch: 2 June)

Event Time Altitude Azimuth Distance (km) Brightness Sun altitude
Rises 21:48:59 0° 293° (WNW) 13,672 7.1 -30.3°
Reaches altitude 10° 22:04:13 10° 293° (WNW) 11,040 6.6 -27.2°
Maximum altitude 22:38:46 77° 212° (SSW) 2,522 3.4 -20.1°
Drops below altitude 10° 22:47:18 10° 126° (SE) 3,319 4.6 -18.3°
Sets 22:49:08 0° 124° (SE) 3,916 5.1 -17.9°
